[[{"header":{"parameterUnit":"m.s-1","parameterCategory":1,"la1":30.2991,"la2":30.254,"lo1":-89.0895,"lo2":-89.0444,"dy":0.0017,"dx":0.0017,"nx":28,"ny":28,"refTime":"2025-08-23T21:00:00:Z","depth":0,"parameterNumber":2,"parameterNumberName":"U-component_of_WINDS"},"data":[0,0,0,0,0,0,0,0,0,0,0,0,0,0,0,0,0,0,0,0,0,0,0,0,0,0,0,0,0,0,0,0,0,0,0,0,0,0,0,0,0,0,0,0,0,0,0,0,0,0,0,0,0,0,0,0,0,0,1.3567,1.3569,0,1.3749,1.3751,1.3753,1.3806,1.3805,1.3804,1.3803,1.3989,1.3994,1.4,0,0,0,0,0,0,0,0,0,0,0,0,0,1.3265,1.327,1.3567,1.3569,1.3572,1.3749,1.3751,1.3754,1.3806,1.3805,1.3804,1.3803,1.3987,1.3994,1.4001,0,0,0,0,0,0,0,0,0,0,0,0,0,1.3416,1.3272,1.3567,1.3619,1.3626,1.3748,1.3751,1.3754,1.3806,1.3805,1.3804,1.3802,1.3984,1.3993,1.4002,1.4085,0,0,1.4028,1.4032,0,0,0,0,0,0,0,0,1.3408,1.3427,1.3609,1.3616,1.3623,1.3753,1.3713,1.3865,1.3807,1.3738,1.3803,1.3801,1.3911,1.3926,1.3963,1.4093,1.4101,1.4029,1.4034,1.4038,1.4041,0,0,0,0,0,0,0,1.3397,1.342,1.3639,1.3612,1.362,1.3634,1.3654,1.3742,1.383,1.3744,1.3748,1.3769,1.3915,1.3955,1.3968,1.4104,1.4029,1.4037,1.4042,1.4046,1.4313,1.4315,0,0,0,0,0,0,1.3378,1.3411,1.3633,1.3644,1.351,1.364,1.3663,1.3713,1.383,1.3846,1.377,1.3771,1.3941,1.3958,1.3975,1.4081,1.4038,1.4046,1.4051,1.4311,1.4314,1.4316,0,0,0,0,0,0,1.3371,1.3397,1.3626,1.3529,1.3559,1.3647,1.3703,1.3717,1.3757,1.385,1.3866,1.3794,1.394,1.3963,1.4057,1.4088,1.405,1.4058,1.4309,1.4312,1.4315,1.4292,0,0,0,0,0,0,1.3362,1.3394,1.3427,1.3529,1.3564,1.3705,1.3705,1.3722,1.3772,1.3775,1.3877,1.3892,1.3941,1.4044,1.4066,1.4099,1.4065,1.4307,1.431,1.4314,1.4291,1.4294,1.4297,0,0,0,0,0,1.3351,1.3413,1.3428,1.3455,1.3606,1.3707,1.3727,1.3782,1.3775,1.3808,1.3868,1.3889,1.4081,1.4053,1.4079,1.4115,1.4305,1.4309,1.4313,1.4289,1.4293,1.4297,0,0,0,0,0,0,1.331,1.3427,1.3445,1.3542,1.3614,1.3715,1.3759,1.3784,1.3859,1.3859,1.3924,1.3946,1.4036,1.4085,1.4052,1.4202,1.4194,1.4203,1.4167,1.4171,1.4174,1.416,1.4072,0,0,0,0,0,1.3313,1.3385,1.3483,1.3558,1.3594,1.367,1.3716,1.3752,1.383,1.386,1.3927,1.4001,1.4078,1.4128,1.4204,1.4298,1.4322,1.4336,1.4339,1.4341,1.4348,1.4403,1.4411,1.4329,1.4329,1.4329,0,0,1.3318,1.3391,1.3432,1.3552,1.3612,1.3685,1.3695,1.3772,1.3827,1.3872,1.3966,1.4017,1.4104,1.42,1.4245,1.4243,1.4376,1.4346,1.4347,1.4354,1.4408,1.4416,1.4422,1.4332,1.4332,1.4331,0,0,1.3365,1.3427,1.3497,1.3558,1.365,1.37,1.3717,1.3816,1.3852,1.3947,1.3983,1.4049,1.4181,1.4242,1.429,1.4362,1.4385,1.4385,1.4401,1.4454,1.446,1.4466,1.4492,1.4501,1.4392,1.4392,1.4392,0,1.3359,1.3471,1.353,1.3606,1.3658,1.3703,1.3775,1.3831,1.3942,1.3977,1.3974,1.4141,1.4203,1.4314,1.4331,1.4369,1.439,1.4374,1.4454,1.4461,1.4468,1.4493,1.4503,1.4392,1.4392,1.4392,1.4392,0,1.346,1.3538,1.3584,1.3691,1.3749,1.3822,1.3892,1.3943,1.3975,1.4026,1.4123,1.42,1.4292,1.4322,1.4353,1.4438,1.4434,1.4442,1.4434,1.4474,1.4499,1.4509,1.4391,1.4391,1.4391,1.4391,0,0,1.3485,1.3626,1.3641,1.3691,1.3797,1.3857,1.3933,1.4025,1.4068,1.4144,1.4209,1.4321,1.4329,1.4384,1.4423,1.4469,1.4523,1.4472,1.4475,1.4479,1.4621,1.4614,1.4625,1.4539,1.4541,1.4543,1.4614,0,1.3545,1.3682,1.3738,1.385,1.3922,1.3967,1.4034,1.4105,1.4156,1.4225,1.4281,1.4359,1.4364,1.4397,1.4445,1.4506,1.4552,1.4502,1.46,1.4603,1.4577,1.4638,1.4631,1.4694,1.4624,1.4626,1.4627,0,1.3633,1.3711,1.3829,1.3927,1.396,1.4018,1.4108,1.4173,1.4256,1.429,1.4352,1.4389,1.4471,1.4459,1.4573,1.4537,1.4582,1.4618,1.4622,1.4632,1.4617,1.465,1.4716,1.4725,1.4643,1.4642,1.4641,0,1.3639,1.3773,1.3862,1.3903,1.402,1.406,1.4111,1.4192,1.4244,1.4323,1.4357,1.4444,1.4491,1.4557,1.4617,1.4603,1.4726,1.4718,1.4756,1.4755,1.4779,1.4777,1.4852,1.4808,1.4808,1.4808,1.4807,0,1.37,1.377,1.3866,1.3921,1.4002,1.4066,1.4145,1.4199,1.4271,1.4337,1.4382,1.4442,1.4518,1.4589,1.4636,1.4724,1.4745,1.4774,1.4786,1.477,1.4766,1.48,1.4797,1.481,1.481,1.4809,1.4809,0,1.3719,1.3786,1.3886,1.3989,1.4017,1.4072,1.416,1.4215,1.4269,1.4352,1.4375,1.4458,1.4544,1.4611,1.4722,1.4754,1.4847,1.486,1.4819,1.4825,1.4859,1.4855,1.4958,1.4975,1.4919,1.4919,1.492,0,1.3753,1.3809,1.3919,1.3967,1.4017,1.4093,1.4147,1.4213,1.4267,1.4367,1.441,1.4499,1.4574,1.471,1.478,1.4866,1.4881,1.4912,1.4894,1.4877,1.4882,1.4878,1.4884,1.4913,1.4914,1.4914,1.4914,0,1.3807,1.3838,1.3914,1.4002,1.4065,1.4138,1.4211,1.4248,1.4327,1.4386,1.4475,1.4533,1.4648,1.4736,1.483,1.4882,1.4912,1.4919,1.4933,1.4917,1.4891,1.4906,1.4825,1.4916,1.4916,1.4916,1.4916,1.4916,1.3835,1.3887,1.3973,1.4057,1.4119,1.4187,1.4244,1.4305,1.4381,1.448,1.4514,1.4606,1.469,1.4818,1.4872,1.4945,1.4946,1.4965,1.497,1.4973,1.4972,1.488,1.4962,1.4962,1.4962,1.4962,1.4962,0,1.3891,1.3949,1.4025,1.4127,1.4193,1.4216,1.4299,1.4353,1.4433,1.4509,1.4582,1.4685,1.4771,1.485,1.494,1.4983,1.4999,1.5005,1.5002,1.5014,1.4966,1.4945,1.4991,1.4991,1.4991,1.4991,1.4991,1.499,1.3927,1.4017,1.4059,1.4181,1.4238,1.4329,1.4374,1.4438,1.4499,1.4612,1.4684,1.4735,1.4812,1.4909,1.4989,1.501,1.5041,1.5043,1.5067,1.5021,1.5017,1.5013,1.4995,1.505,1.505,1.511,1.511,1.5111]},{"header":{"parameterUnit":"m.s-1","parameterCategory":1,"la1":30.2991,"la2":30.254,"lo1":-89.0895,"lo2":-89.0444,"dy":0.0017,"dx":0.0017,"nx":28,"ny":28,"refTime":"2025-08-23T21:00:00:Z","depth":0,"parameterNumber":3,"parameterNumberName":"V-component_of_WINDS"},"data":[0,0,0,0,0,0,0,0,0,0,0,0,0,0,0,0,0,0,0,0,0,0,0,0,0,0,0,0,0,0,0,0,0,0,0,0,0,0,0,0,0,0,0,0,0,0,0,0,0,0,0,0,0,0,0,0,0,0,3.7287,3.7287,0,3.7303,3.7303,3.7303,3.7245,3.7243,3.7241,3.7239,3.7253,3.7255,3.7257,0,0,0,0,0,0,0,0,0,0,0,0,0,3.7202,3.7204,3.7287,3.7287,3.7287,3.7303,3.7303,3.7303,3.7245,3.7243,3.7241,3.7239,3.7253,3.7255,3.7257,0,0,0,0,0,0,0,0,0,0,0,0,0,3.723,3.7204,3.7287,3.726,3.7258,3.7303,3.7303,3.7303,3.7245,3.7243,3.724,3.7238,3.7252,3.7255,3.7258,3.7329,0,0,3.7267,3.7268,0,0,0,0,0,0,0,0,3.7229,3.7234,3.7264,3.7262,3.7259,3.7269,3.7278,3.7312,3.7246,3.725,3.7239,3.7236,3.726,3.7263,3.7271,3.7329,3.733,3.7267,3.7269,3.727,3.7271,0,0,0,0,0,0,0,3.7227,3.7233,3.7293,3.7264,3.7262,3.7246,3.7247,3.7284,3.727,3.7249,3.7245,3.7248,3.7259,3.7269,3.7271,3.733,3.7267,3.727,3.7272,3.7273,3.7447,3.7449,0,0,0,0,0,0,3.7229,3.7231,3.7292,3.7293,3.7238,3.725,3.7251,3.7269,3.7269,3.7267,3.725,3.7245,3.7265,3.7268,3.7271,3.7354,3.727,3.7273,3.7275,3.7444,3.7447,3.745,0,0,0,0,0,0,3.7227,3.7235,3.7292,3.7261,3.7267,3.7254,3.7274,3.727,3.728,3.727,3.7267,3.7263,3.7263,3.7267,3.7315,3.7354,3.7274,3.7277,3.744,3.7445,3.7449,3.7521,0,0,0,0,0,0,3.7225,3.7235,3.7262,3.7262,3.7269,3.7336,3.7277,3.7273,3.7286,3.7279,3.7281,3.7279,3.7261,3.7311,3.7318,3.7357,3.7279,3.7437,3.7442,3.7447,3.7515,3.7527,3.7538,0,0,0,0,0,3.7222,3.7281,3.7264,3.7272,3.7304,3.7339,3.7342,3.7322,3.7289,3.7316,3.731,3.7279,3.7349,3.7316,3.7324,3.7364,3.7434,3.7441,3.7447,3.751,3.7525,3.7537,0,0,0,0,0,0,3.7285,3.7281,3.7261,3.7322,3.7332,3.7329,3.7362,3.7338,3.7355,3.7349,3.7321,3.7322,3.7375,3.7374,3.7338,3.7433,3.7386,3.7394,3.7431,3.7445,3.7456,3.7455,3.7282,0,0,0,0,0,3.7306,3.7336,3.733,3.7384,3.739,3.7376,3.739,3.7373,3.7381,3.7384,3.7381,3.7389,3.7413,3.7429,3.745,3.7515,3.7514,3.7546,3.7557,3.7567,3.7574,3.7608,3.7622,3.7471,3.7471,3.7471,0,0,3.7349,3.7351,3.7371,3.7397,3.7402,3.7433,3.7379,3.7414,3.7436,3.7389,3.7434,3.7432,3.7439,3.7496,3.7521,3.7497,3.7616,3.7575,3.7582,3.7585,3.7616,3.763,3.7643,3.7475,3.7475,3.7474,0,0,3.7444,3.7449,3.7494,3.7501,3.7509,3.7499,3.7511,3.7512,3.7509,3.7554,3.752,3.7545,3.7587,3.7593,3.7602,3.77,3.7672,3.7707,3.7766,3.78,3.7811,3.7822,3.7857,3.787,3.7715,3.7715,3.7715,0,3.7497,3.7543,3.752,3.7558,3.757,3.753,3.7576,3.7583,3.7598,3.7607,3.758,3.7632,3.7634,3.7691,3.7715,3.7724,3.7735,3.7707,3.7812,3.7822,3.7831,3.7864,3.7877,3.7719,3.7719,3.7718,3.7718,0,3.7607,3.7639,3.7675,3.7691,3.7708,3.7749,3.7732,3.7751,3.7733,3.7726,3.7772,3.7773,3.7794,3.7806,3.7789,3.7862,3.7847,3.7817,3.7769,3.785,3.7881,3.7893,3.7725,3.7724,3.7722,3.7721,0,0,3.7741,3.7746,3.7759,3.7766,3.7773,3.7797,3.7836,3.7858,3.7874,3.7886,3.7918,3.7954,3.7926,3.7936,3.7919,3.7949,3.8026,3.7914,3.7914,3.7935,3.8106,3.8129,3.8144,3.8008,3.801,3.8012,3.8106,0,3.7834,3.7903,3.7884,3.7952,3.7981,3.7944,3.7978,3.7986,3.798,3.8003,3.7996,3.8023,3.7984,3.799,3.8017,3.8011,3.806,3.8004,3.8036,3.8038,3.8036,3.816,3.8184,3.8272,3.8117,3.8119,3.8121,0,3.7952,3.797,3.8041,3.8043,3.8055,3.8086,3.8104,3.8127,3.8135,3.8128,3.814,3.8117,3.8154,3.8107,3.8159,3.8121,3.8133,3.8132,3.8135,3.8137,3.8084,3.8165,3.83,3.8313,3.8139,3.8138,3.8137,0,3.8043,3.8084,3.8132,3.8139,3.8143,3.8166,3.8169,3.8174,3.8188,3.8203,3.8212,3.8232,3.8242,3.8258,3.824,3.8207,3.8294,3.8245,3.8289,3.829,3.8309,3.8308,3.8448,3.8317,3.8317,3.8317,3.8317,0,3.8149,3.8194,3.8173,3.8203,3.8252,3.823,3.8279,3.8277,3.8282,3.8309,3.8278,3.8305,3.828,3.8304,3.8291,3.8335,3.834,3.8336,3.8331,3.8339,3.8339,3.8346,3.8339,3.8321,3.832,3.8319,3.8318,0,3.8258,3.8246,3.8296,3.8296,3.8297,3.8334,3.8333,3.836,3.8352,3.8388,3.8395,3.8382,3.8409,3.8393,3.842,3.8411,3.847,3.8457,3.8468,3.8464,3.8509,3.8505,3.8658,3.8677,3.8535,3.8536,3.8537,0,3.8327,3.8361,3.8365,3.8382,3.8387,3.8415,3.8429,3.8409,3.8425,3.8436,3.8462,3.8486,3.8505,3.8549,3.8542,3.8563,3.855,3.8602,3.8553,3.8559,3.8551,3.8549,3.8552,3.8612,3.8614,3.8615,3.8616,0,3.8449,3.8442,3.8465,3.8486,3.8505,3.852,3.8533,3.8548,3.8528,3.8548,3.8575,3.859,3.8618,3.8643,3.866,3.8661,3.8636,3.8632,3.8643,3.8651,3.8656,3.8654,3.8495,3.8629,3.8627,3.8626,3.8626,3.8625,3.854,3.8569,3.8577,3.8603,3.8611,3.8623,3.8649,3.8645,3.8668,3.869,3.8676,3.8709,3.8715,3.8736,3.8741,3.8766,3.8745,3.8761,3.8765,3.877,3.8776,3.8652,3.8769,3.8769,3.8768,3.8768,3.8768,0,3.8661,3.8665,3.869,3.8709,3.873,3.8705,3.8717,3.8736,3.8766,3.8774,3.8794,3.8825,3.8849,3.8844,3.8865,3.8886,3.8875,3.8892,3.8891,3.8891,3.8794,3.8782,3.8901,3.8901,3.8901,3.8901,3.8901,3.8901,3.8727,3.8774,3.8768,3.8818,3.882,3.8853,3.8863,3.8874,3.8881,3.8918,3.8938,3.8935,3.8938,3.896,3.898,3.8978,3.8987,3.9009,3.9003,3.8911,3.8898,3.8886,3.8874,3.9011,3.9012,3.9098,3.9099,3.91]}]]